Simultaneous Nadir Overpasses (SNOs) Predictions

Prediction of SNOs between HIMAWARI-9 and NPP Satellite Orbit:

Table of predicted SNOs for the next 14.0 days since TLE Epoch: 3/25/2024
Index Date Time (HIMAWARI-9) HIMAWARI-9 Lat,Lon NPP Lat,Lon Distance(km) Time Diff (sec)
1 03/25/2024 04:00:58 -0.02, 140.77 0.12, 141.40 70.89 80
2 03/27/2024 16:04:03 0.02, 140.76 0.04, 140.65 12.72 80
3 03/30/2024 04:04:36 -0.03, 140.75 -0.25, 139.87 100.60 80
4 03/31/2024 03:48:32 -0.03, 140.74 0.80, 144.39 416.32 80
5 04/01/2024 16:10:21 0.04, 140.73 0.37, 139.12 182.88 80
6 04/02/2024 15:48:56 0.04, 140.72 -0.63, 143.65 334.12 80
7 04/04/2024 04:10:53 -0.05, 140.71 -0.60, 138.35 269.78 80
8 04/05/2024 03:54:48 -0.05, 140.70 0.41, 142.88 247.88 80
9 04/06/2024 16:16:36
